Powrót do katalogu

TK-2

AktywnyNaukaSSO
NORAD 52150·PAYLOAD·🇨🇳 China

Wystrzelony Mar 29, 2022 z Taiyuan Satellite Launch Center

Loading…

Następne Przeloty (najbliższe 24 godziny)

TLE

ŚwieżeSource: Space-Track

Epoka: Sep 14, 2026, 15:06 UTC

1 52150U 22031A   26257.62938775  .00002683  00000-0  19864-3 0  9990
2 52150  97.8280  94.8323 0015255 179.9180 180.2051 15.03952131243906

Śledź TK-2 w czasie rzeczywistym z AllMySat

Download on the App Store